Location: An Tulaigh
(53.1928°N, 8.1647°W)
Time: 00:22:03
(UTC+00:00)

Cosmos 220 Rocket - Pass Details

Date: 15 May 2026
Orbit: 537 x 573 km, 74.0° (Epoch: 9 June)

Event Time Altitude Azimuth Distance (km) Brightness Sun altitude
Rises 22:07:59 0° 205° (SSW) 2,701 7.0 -11.6°
Reaches altitude 10° 22:10:08 10° 206° (SSW) 1,818 6.2 -11.8°
Maximum altitude 22:14:11 87° 292° (WNW) 561 3.8 -12.1°
Drops below altitude 10° 22:18:19 10° 26° (NNE) 1,855 7.0 -12.4°
Sets 22:20:32 0° 26° (NNE) 2,762 7.9 -12.6°
